This is the latest recevied weather packets stored in our database for station/object W0AKY-13. If no packets are shown the sender has not sent any weather packets the latest 10 day(s).
| Time | Temp. | Humidity | Pressure | Rain* | Wind** | Luminosity | Snow |
|---|---|---|---|---|---|---|---|
| 1788122366 | 36.11° C | 52% | 1010.6 hPa | 0 mm | - | 413 W/m² | - |
| 1788122062 | 35.56° C | 54% | 1010.6 hPa | 0 mm | - | 490 W/m² | - |
| 1788121761 | 35° C | 53% | 1010.8 hPa | 0 mm | - | 314 W/m² | - |
| 1788121457 | 35° C | 53% | 1010.6 hPa | 0 mm | - | 369 W/m² | - |
| 1788121153 | 35° C | 52% | 1010.8 hPa | 0 mm | - | 424 W/m² | - |
| 1788120846 | 36.11° C | 54% | 1011 hPa | 0 mm | - | 309 W/m² | - |
| 1788120542 | 35.56° C | 52% | 1011 hPa | 0 mm | - | 516 W/m² | - |
| 1788120242 | 35° C | 52% | 1011.1 hPa | 0 mm | - | 549 W/m² | - |
| 1788119937 | 35° C | 51% | 1011.1 hPa | 0 mm | - | 452 W/m² | - |
| 1788119636 | 35° C | 53% | 1010.9 hPa | 0 mm | - | 552 W/m² | - |
| 1788119335 | 35° C | 52% | 1011.2 hPa | 0 mm | - | 467 W/m² | - |
| 1788119034 | 35° C | 51% | 1011.5 hPa | 0 mm | - | 393 W/m² | - |
| 1788118724 | 35° C | 55% | 1011.5 hPa | 0 mm | - | 314 W/m² | - |
| 1788118423 | 35° C | 51% | 1011.6 hPa | 0 mm | - | 562 W/m² | - |
| 1788118119 | 33.89° C | 56% | 1011.5 hPa | 0 mm | - | 573 W/m² | - |
| 1788117819 | 33.33° C | 55% | 1011.5 hPa | 0 mm | - | 314 W/m² | - |
| 1788117515 | 33.33° C | 55% | 1011.1 hPa | 0 mm | - | 185 W/m² | - |
| 1788117214 | 33.33° C | 55% | 1011.3 hPa | 0 mm | - | 302 W/m² | - |
| 1788116910 | 33.33° C | 55% | 1011.3 hPa | 0 mm | - | 386 W/m² | - |
| 1788115511 | 33.33° C | 53% | 1011.2 hPa | 0 mm | - | 372 W/m² | - |
| 1788115205 | 33.33° C | 53% | 1011.2 hPa | 0 mm | - | 372 W/m² | - |
| 1788114906 | 33.33° C | 53% | 1011.2 hPa | 0 mm | - | 447 W/m² | - |
| 1788114601 | 33.33° C | 54% | 1011.3 hPa | 0 mm | - | 626 W/m² | - |
| 1788114297 | 32.78° C | 53% | 1011.3 hPa | 0 mm | - | 255 W/m² | - |
| 1788113993 | 32.78° C | 54% | 1011.6 hPa | 0 mm | - | 275 W/m² | - |
* Rain latest hour (hover to see other rain measurements)
** Current wind speed in m/s (hover to see current wind gust speed)